EW3867 Weather Reports


Display with metric or nautical units.
time (UTC)temp
F
wind
direction
speed
MPH
gust
MPH
rain 1hr
in
rain 24hr
in
rain mn
in
humidity
%
barometer
mb
20260901133715 54 9 0.0 7.0 0.00 0.17 0.00 83 1015.2
20260901132737 52 9 0.0 4.0 0.00 0.17 0.00 86 1015.1
20260901131710 51 9 0.0 0.0 0.00 0.17 0.00 88 1015.1
20260901130659 50 9 0.0 0.0 0.00 0.17 0.00 88 1015.0
20260901124514 50 9 0.0 0.0 0.00 0.17 0.00 89 1014.7
20260901123539 50 9 0.0 0.0 0.00 0.17 0.00 89 1014.4
20260901122508 50 9 0.0 0.0 0.00 0.17 0.00 89 1014.3
20260901120306 50 9 0.0 0.0 0.00 0.17 0.00 90 1014.0
20260901115315 50 5 0.0 0.0 0.00 0.17 0.00 89 1013.9
20260901114253 50 9 0.0 0.0 0.00 0.17 0.00 89 1013.9
20260901112106 51 9 0.0 0.0 0.00 0.17 0.00 88 1013.7
20260901111100 51 9 0.0 0.0 0.00 0.17 0.00 87 1013.6
20260901110055 52 9 0.0 0.0 0.00 0.17 0.00 87 1013.6
20260901105026 52 9 0.0 0.0 0.00 0.17 0.00 86 1013.8
20260901103952 53 9 0.0 0.0 0.00 0.17 0.00 85 1013.7
20260901102937 53 9 0.0 0.0 0.00 0.17 0.00 85 1013.6
20260901101939 53 9 0.0 7.0 0.00 0.17 0.00 85 1013.5
20260901095814 53 9 0.0 0.0 0.00 0.17 0.00 86 1013.6
20260901094817 53 9 0.0 0.0 0.00 0.17 0.00 86 1013.6
20260901093806 53 9 0.0 0.0 0.00 0.17 0.00 86 1013.6
20260901092827 53 5 0.0 0.0 0.00 0.17 0.00 87 1013.7
20260901091821 53 9 0.0 0.0 0.00 0.17 0.00 86 1013.6
20260901090827 53 9 0.0 0.0 0.00 0.17 0.00 86 1013.6
20260901085816 53 5 0.0 0.0 0.00 0.17 0.00 86 1013.7
20260901084810 54 9 0.0 0.0 0.00 0.17 0.00 86 1013.8
20260901083740 54 5 0.0 0.0 0.00 0.17 0.00 86 1013.8
20260901082738 54 9 0.0 0.0 0.00 0.17 0.00 86 1013.7
20260901081733 54 5 0.0 0.0 0.00 0.17 0.00 85 1013.9
20260901080726 54 9 0.0 0.0 0.00 0.17 0.00 86 1013.9
20260901075742 54 9 0.0 4.0 0.00 0.19 0.00 86 1013.8
20260901074739 55 9 0.0 0.0 0.00 0.21 0.00 85 1014.0
20260901073757 55 9 0.0 0.0 0.00 0.21 0.00 86 1014.0
20260901072731 54 9 0.0 0.0 0.00 0.21 0.00 87 1014.0
20260901071750 54 9 0.0 0.0 0.00 0.21 0.00 86 1014.0
20260901070758 55 9 0.0 0.0 0.00 0.21 0.00 86 1013.9
20260901064702 54 9 0.0 3.0 0.00 0.21 0.00 86 1013.9
20260901063659 55 9 0.0 0.0 0.00 0.21 0.00 86 1013.9
20260901062710 55 9 0.0 0.0 0.00 0.21 0.00 85 1014.0
20260901061707 55 9 0.0 0.0 0.00 0.21 0.00 86 1013.9
20260901060729 55 9 0.0 0.0 0.00 0.21 0.00 86 1013.8
20260901055739 55 9 0.0 0.0 0.00 0.21 0.21 85 1013.7
20260901054731 55 9 4.0 0.0 0.00 0.21 0.21 86 1013.4
20260901053713 55 5 4.0 9.0 0.00 0.21 0.21 87 1013.1
20260901052700 55 355 0.0 1.0 0.00 0.21 0.21 87 1013.2
20260901051638 55 355 0.0 0.0 0.00 0.21 0.21 88 1013.6
20260901050605 55 355 0.0 7.0 0.00 0.21 0.21 87 1013.6
20260901045534 55 355 0.0 2.0 0.00 0.21 0.21 88 1013.5
20260901043346 56 355 0.0 0.0 0.00 0.21 0.21 87 1013.6
20260901042339 55 355 0.0 0.0 0.00 0.21 0.21 89 1013.6
20260901041340 56 355 0.0 7.0 0.00 0.21 0.21 88 1013.9
20260901040347 56 355 0.0 0.0 0.00 0.21 0.21 89 1013.5
20260901035410 56 355 0.0 0.0 0.00 0.21 0.21 89 1013.6
20260901034419 56 355 0.0 0.0 0.00 0.21 0.21 89 1013.4
20260901033433 56 355 0.0 0.0 0.00 0.21 0.21 89 1013.2
20260901032456 56 355 0.0 0.0 0.00 0.21 0.21 90 1013.3
20260901031505 56 355 0.0 0.0 0.00 0.21 0.21 90 1013.0
20260901030459 56 355 0.0 0.0 0.00 0.21 0.21 91 1012.8
20260901025509 57 355 0.0 0.0 0.00 0.21 0.21 91 1012.6
20260901024446 57 355 0.0 0.0 0.00 0.21 0.21 91 1012.6
20260901023439 57 355 0.0 0.0 0.00 0.21 0.21 91 1012.5
20260901022405 57 355 0.0 0.0 0.00 0.21 0.21 90 1012.3
20260901021425 58 355 0.0 0.0 0.00 0.21 0.21 89 1012.1
20260901020406 58 355 0.0 0.0 0.00 0.21 0.21 89 1012.0
20260831194159 60 9 0.0 0.0 0.00 0.32 0.17 85 1013.0
20260831193154 59 9 4.0 0.0 0.00 0.32 0.17 88 1012.7
20260831192138 58 355 11.0 18.0 0.06 0.32 0.17 90 1012.3
20260831191122 58 345 9.0 18.0 0.13 0.32 0.16 89 1012.1
20260831190051 59 0 0.0 4.0 0.16 0.29 0.13 89 1013.6
20260831185028 59 0 0.0 0.0 0.09 0.26 0.10 87 1013.9
20260831184002 59 0 0.0 1.0 0.04 0.25 0.09 87 1013.9
20260831182944 60 0 0.0 3.0 0.05 0.24 0.08 85 1013.8
20260831181954 60 0 0.0 2.0 0.00 0.23 0.06 85 1013.6
20260831180952 60 0 0.0 0.0 0.00 0.22 0.06 85 1013.5
20260831175932 60 0 0.0 0.0 0.06 0.22 0.06 82 1013.4
20260831174943 62 0 3.0 9.0 0.00 0.21 0.05 75 1013.2
20260831173938 62 0 4.0 11.0 0.00 0.20 0.04 73 1013.2
20260831172941 63 0 4.0 10.0 0.00 0.20 0.04 72 1013.0
20260831172000 63 0 4.0 11.0 0.00 0.20 0.04 73 1012.8
20260831165931 63 0 4.0 10.0 0.00 0.20 0.04 74 1012.7
20260831164900 63 0 6.0 13.0 0.00 0.20 0.04 72 1012.5
20260831163852 63 0 6.0 11.0 0.00 0.20 0.04 70 1012.3
20260831162911 64 0 7.0 13.0 0.00 0.20 0.04 70 1012.3
20260831161845 64 0 3.0 13.0 0.00 0.20 0.04 70 1012.2
20260831160851 63 0 4.0 13.0 0.00 0.20 0.04 69 1012.2
20260831154806 63 0 3.0 11.0 0.00 0.20 0.04 71 1012.1
20260831153748 62 255 1.0 9.0 0.00 0.20 0.04 71 1012.2
20260831152716 62 253 0.0 0.0 0.00 0.20 0.04 72 1012.2
20260831151706 62 252 0.0 8.0 0.00 0.20 0.04 72 1012.2
20260831150640 61 246 0.0 10.0 0.00 0.20 0.04 74 1012.1
20260831145625 61 238 0.0 0.0 0.00 0.20 0.04 74 1012.2
20260831144624 60 238 0.0 8.0 0.00 0.20 0.04 76 1012.1
20260831143600 60 209 0.0 0.0 0.00 0.20 0.04 76 1011.8
20260831141432 59 132 0.0 0.0 0.00 0.20 0.04 76 1010.7